Regional Weather Roundup
Issued by NWS

Home | Current Version | Previous Version | Graphics & Text | Print | Product List | Glossary On
Versions: 1 2 3 4 5 6 7 8 9 10 11 12 13 14 15 16 17 18 19 20 21 22 23 24 25 26 27 28 29 30 31 32 33 34 35 36 37 38 39 40 41 42 43 44 45 46 47 48 49 50
384
ASUS43 KMPX 240401
RWRMN
WEATHER ROUNDUP FOR MINNESOTA
NATIONAL WEATHER SERVICE TWIN CITIES/CHANHASSEN MN
1100 PM CDT MON MAY 23 2016


NOTE: "FAIR" INDICATES FEW OR NO CLOUDS BELOW 12,000 FEET WITH NO
SIGNIFICANT WEATHER AND/OR OBSTRUCTIONS TO VISIBILITY. N/A MEANS
CURRENT SKY AND/OR WEATHER CONDITIONS ARE NOT AVAILABLE.

MNZ060>063-068>070-240500-
   Twin Cities Metro

CITY           SKY/WX    TMP DP  RH WIND       PRES   REMARKS
TWIN CITIES    CLOUDY    66  59  78 NE7       29.82R
ST PAUL        CLOUDY    66  60  81 N5        29.82R
CRYSTAL        CLOUDY    63  60  90 N6        29.81R
BLAINE         HVY RAIN  64  64 100 N9        29.81F
EDEN PRAIRIE   CLOUDY    66  59  78 NE7       29.80R
SOUTH ST PAUL  MOCLDY    66  59  76 CALM      29.82R
LAKE ELMO      CLOUDY    64  61  88 N7        29.84R
$$
MNZ001>005-007-008-013>017-022>024-027-028-240500-
   Northwest Minnesota

CITY           SKY/WX    TMP DP  RH WIND       PRES   REMARKS
BEMIDJI        CLOUDY    62  54  74 CALM      29.74R
HALLOCK        MOCLDY    64  50  59 SE7       29.68R
ROSEAU         CLOUDY    63  48  59 W10G16    29.72R
WARROAD        CLOUDY    63  52  67 S3        29.72R
THIEF RVR FALL CLOUDY    64  52  63 SE5       29.73R
CROOKSTON      CLOUDY    66  48  52 SE5       29.71R
FOSSTON        CLOUDY    61  54  77 CALM      29.74R
DETROIT LAKES  MOCLDY    68  52  56 NE5       29.74S
MOORHEAD       CLOUDY    70  50  49 E8        29.70S
PARK RAPIDS    CLOUDY    68  57  68 E5        29.75R
MAHNOMEN       MOCLDY    68  51  53 E3        29.72R
$$
MNZ006-009>011-018-025>026-240500-
   North Central Minnesota

CITY           SKY/WX    TMP DP  RH WIND       PRES   REMARKS
BAUDETTE       CLOUDY    57  50  77 CALM      29.72R
FLAG ISLAND    CLOUDY    63  55  77 SE5       29.69S
INTL FALLS     CLOUDY    55  54  96 CALM      29.73R
WASKISH        CLOUDY    59  55  88 MISG      29.73R
BIG FORK       CLOUDY    59  54  82 CALM      29.75R
LONGVILLE      CLOUDY    61  59  94 CALM      29.77R
GRAND RAPIDS     N/A    N/A N/A N/A MISG        N/A
CRANE LAKE     CLOUDY    59  57  94 CALM      29.76R
ORR            CLOUDY    63  59  88 CALM      29.72R
COOK           CLOUDY    64  57  77 SE3       29.76R
WALKER         CLOUDY    66  59  79 CALM      29.75R THUNDER
$$
MNZ012-019>021-037-240500-
   Northeast Minnesota

CITY           SKY/WX    TMP DP  RH WIND       PRES   REMARKS
DULUTH         CLOUDY    62  60  93 S13       29.78S
ELY            CLOUDY    63  55  77 SE5       29.77R
HIBBING        CLOUDY    63  59  87 SW3       29.77R
EVELETH        CLOUDY    63  59  88 CALM      29.78R
DULUTH HARBOR  RAIN      63  61  94 S8        29.78R
TWO HARBORS    CLOUDY    64  61  88 E3        29.74F
SILVER BAY     DRIZZLE   63  61  94 SE3       29.78R
GRAND MARAIS     N/A     51  48  89 CALM      29.80F
G MARAIS ARPRT RAIN      59  55  88 S6        29.83S VSB 1/2
$$
MNZ029>031-032-039>041-046>048-054>057-064-240500-
   West Central Minnesota

CITY           SKY/WX    TMP DP  RH WIND       PRES   REMARKS
FERGUS FALLS   MOCLDY    70  52  52 CALM      29.68S
WHEATON        CLOUDY    70  55  60 S7        29.73R
MORRIS         CLOUDY    68  54  60 SW5       29.72S
ALEXANDRIA     LGT RAIN  66  63  90 SE8       29.76R
ELBOW LAKE     FAIR      67  55  65 E6        29.73S
WADENA         MOCLDY    64  59  82 SE8       29.74S
GLENWOOD       CLOUDY    64  63  94 SE13      29.76S
APPLETON       CLOUDY    64  55  72 SW3       29.73R
BENSON         CLOUDY    66  55  68 SW5       29.73S
ORTONVILLE     CLOUDY    66  55  68 CALM      29.73R
MADISON        CLOUDY    64  55  72 S5        29.75R
WILLMAR        FAIR      68  61  77 SW5       29.77S
$$
MNZ033>034-036-042>043-049>051-058-059-240500-
   Central Minnesota

CITY           SKY/WX    TMP DP  RH WIND       PRES   REMARKS
ST CLOUD       CLOUDY    63  61  93 SE7       29.77F
PAYNESVILLE    CLOUDY    64  61  90 SE5       29.77S
AITKIN         CLOUDY    64  57  77 S3        29.76R
PINE RIVER     CLOUDY    63  59  88 CALM      29.81R
BRAINERD       CLOUDY    63  61  93 S5        29.78R
STAPLES        CLOUDY    64  61  88 SE7       29.76R
LONG PRAIRIE   FAIR      63  61  94 SE8       29.77S
LITTLE FALLS   CLOUDY    63  59  88 SE3       29.77F
LITCHFIELD     MOCLDY    63  63 100 SE3       29.79R
BUFFALO        CLOUDY    63  61  93 E5        29.81S
MAPLE LAKE     CLOUDY    64  63  97 E5        29.80F
HUTCHINSON     MOCLDY    64  63  96 CALM      29.79S
$$
MNZ037-044-045-052-053-240500-
   East Central Minnesota

CITY           SKY/WX    TMP DP  RH WIND       PRES   REMARKS
PRINCETON      RAIN      64  63  94 SE9       29.79F
MORA           RAIN      61  59  94 S12G21    29.82S
CAMBRIDGE      HVY RAIN  64  55  72 S7        29.81R
RUSH CITY      LGT RAIN  62  59  88 SW13G23   29.83R
MOOSE LAKE     CLOUDY    63  59  88 CALM      29.79R
HINCKLEY       RAIN      64  63  94 S10G23    29.81R
CLOQUET        LGT RAIN  63  59  88 S6        29.80R
MCGREGOR       CLOUDY    61  59  94 CALM      29.78R
$$
MNZ071>073-080-081-089-090-097-098-240500-
   Southwest Minnesota

CITY           SKY/WX    TMP DP  RH WIND       PRES   REMARKS
MONTEVIDEO     CLOUDY    68  61  77 SW8       29.76R
GRANITE FALLS  CLOUDY    67  61  80 S12       29.77R
CANBY          CLOUDY    67  61  81 CALM      29.76R
MARSHALL       CLOUDY    66  61  84 SW12      29.77R
REDWOOD FALLS  CLOUDY    65  60  84 SW10      29.76R
OLIVIA         CLOUDY    59  55  88 SW8       29.76R
PIPESTONE      MOCLDY    63  61  94 S5        29.78S
WINDOM         CLOUDY    64  61  88 S5        29.79R
WORTHINGTON    CLOUDY    63  60  90 SW12      29.80R
JACKSON        CLOUDY    64  61  88 S7        29.80R
TRACY          CLOUDY    66  63  88 SW14      29.77R
SLAYTON        CLOUDY    63  62  97 SW9       29.80R
$$
MNZ065>067-074>077-082>085-091>093-240500-
   South Central Minnesota

CITY           SKY/WX    TMP DP  RH WIND       PRES   REMARKS
MANKATO        CLOUDY    70  59  68 SW17      29.80R
NEW ULM        CLOUDY    66  63  88 SW8       29.78R
ST JAMES       CLOUDY    63  57  82 S9        29.79R
FAIRMONT       CLOUDY    64  61  88 S10       29.79F
GLENCOE        CLOUDY    64  64 100 CALM      29.80R
FARIBAULT      MOCLDY    66  61  82 S13       29.81R
OWATONNA       PTCLDY    68  61  77 S13       29.83R
WASECA         CLOUDY    64  59  82 S13       29.82F
ALBERT LEA     MOCLDY    68  61  77 S7        29.84S
$$
MNZ078>079-086>088-094>096-240500-
   Southeast Minnesota

CITY           SKY/WX    TMP DP  RH WIND       PRES   REMARKS
ROCHESTER      CLOUDY    64  62  93 S8        29.85R
RED WING       LGT RAIN  66  59  77 E3        29.81S
STANTON        CLOUDY    69  60  72 S9G16     29.79S
DODGE CENTER   MOCLDY    64  61  88 SW9       29.85R
WINONA         CLOUDY    70  61  73 CALM      29.84R
AUSTIN         CLOUDY    64  61  88 SW5       29.85R
PRESTON        CLOUDY    63  60  92 SW3       29.87R
$$
ABBREVIATIONS USED IN REMARKS
   TC - TEMPERATURES IN CELSIUS
  WCI - WIND CHILL INDEX
   HX - HEAT INDEX
  VSB - VISIBILITY
$$




USA.gov is the U.S. government's official web portal to all federal, state and local government web resources and services.